Flag for New Zealand Weather past 2 weeks in Auckland, New Zealand

Now
57 °F

Partly sunny.


Feels Like: 54 °F
Forecast: 46 / 59 °F
Wind: 13 mph from Southwest

Location: Auckland Airport

Current Time: Sep 23, 2014 at 10:40:47 AM

Latest Report: Sep 23, 2014 at 10:00 AM


Visibility: N/A

Pressure: 30.09 "Hg

Humidity: 72%

Dew point: 48 °F

Location of AucklandLocation

Historic Weather in Auckland — Graph

°F

Auckland temperature yesterday

Maximum temperature yesterday: 57 °F (at 2:00 PM)
Minimum temperature yesterday: 46 °F (at 11:30 PM)
Average temperature yesterday: 53 °F

Past Weeks' High & Low Weather Summary

 TemperatureHumidityPressure
High64 °F (Sep 11, 3:00 PM)100% (Sep 9, 4:30 AM)30.36 "Hg (Sep 9, 4:30 AM)
Low41 °F (Sep 23, 5:30 AM)55% (Sep 22, 2:30 PM)29.45 "Hg (Sep 20, 9:30 PM)
Average55 °F83%29.93 "Hg
* Reported Sep 8 9:00 AM — Sep 23 9:30 AM, Auckland, Weather by CustomWeather, © 2014

Note: Actual official high and low records may vary slightly from our data, if they occured in-between our weather recording intervals... More about our weather records

Advertising

Auckland weather history for previous 24 hours

 ConditionsComfort  
Time TempWeatherWind HumidityBarometerVisibility
9:30 AM
Sep 23
55 °FPartly sunny.15 mph72%30.09 "HgN/A
9:00 AM52 °FScattered clouds.5 mph72%30.09 "HgN/A
8:30 AM50 °FPassing clouds.3 mph76%30.09 "HgN/A
8:00 AM48 °FCool.2 mph71%30.09 "HgN/A
7:30 AM45 °FQuite cool.No wind81%30.09 "HgN/A
7:00 AM41 °FQuite cool.2 mph87%30.09 "HgN/A
6:30 AM41 °FQuite cool.2 mph87%30.07 "HgN/A
6:00 AM41 °FPassing clouds.2 mph87%30.07 "HgN/A
5:30 AM41 °FPassing clouds.1 mph87%30.07 "HgN/A
5:00 AM43 °FPassing clouds.3 mph76%30.04 "HgN/A
4:30 AM43 °FQuite cool.5 mph76%30.04 "HgN/A
4:00 AM43 °FQuite cool.6 mph71%30.04 "HgN/A
3:30 AM45 °FQuite cool.8 mph71%30.01 "HgN/A
3:00 AM45 °FQuite cool.9 mph66%30.01 "HgN/A
2:30 AM45 °FQuite cool.9 mph66%30.01 "HgN/A
2:00 AM45 °FQuite cool.8 mph66%30.01 "HgN/A
1:30 AM46 °FCool.10 mph66%30.01 "HgN/A
1:00 AM46 °FCool.9 mph66%29.98 "HgN/A
12:30 AM45 °FQuite cool.7 mph71%29.98 "HgN/A
12:00 AM46 °FCool.10 mph66%29.95 "HgN/A
11:30 PM
Sep 22
46 °FCool.10 mph66%29.95 "HgN/A
11:00 PM48 °FCool.14 mph62%29.95 "HgN/A
10:30 PM48 °FCool.16 mph66%29.92 "HgN/A
10:00 PM50 °FPassing clouds.17 mph62%29.92 "HgN/A
9:30 PM52 °FPassing clouds.15 mph67%29.89 "HgN/A
9:00 PM52 °FPassing clouds.16 mph67%29.86 "HgN/A
8:30 PM52 °FCool.16 mph67%29.83 "HgN/A
8:00 PM52 °FCool.16 mph67%29.80 "HgN/A
7:30 PM52 °FCool.17 mph67%29.80 "HgN/A
7:00 PM52 °FCool.18 mph67%29.77 "HgN/A
6:30 PM52 °FCool.17 mph67%29.77 "HgN/A
6:00 PM54 °FCool.23 mph63%29.74 "HgN/A
5:30 PM54 °FCool.23 mph58%29.71 "HgN/A
5:00 PM55 °FPassing clouds.25 mph59%29.68 "HgN/A
4:30 PM55 °FRefreshingly cool.26 mph59%29.68 "HgN/A
4:00 PM57 °FRefreshingly cool.26 mph59%29.65 "HgN/A
3:30 PM57 °FPassing clouds.26 mph59%29.65 "HgN/A
3:00 PM57 °FPassing clouds.29 mph55%29.62 "HgN/A
2:30 PM57 °FPassing clouds.28 mph55%29.62 "HgN/A
2:00 PM57 °FPassing clouds.22 mph63%29.59 "HgN/A
1:30 PM55 °FPassing clouds.22 mph77%29.56 "HgN/A
1:00 PM54 °FScattered clouds.20 mph82%29.56 "HgN/A
12:30 PM50 °FRain showers. Partly sunny.29 mph88%29.53 "Hg3 mi
12:00 PM50 °FSprinkles. Broken clouds.36 mph88%29.53 "Hg4 mi
11:30 AM55 °FSprinkles. Partly sunny.37 mph72%29.50 "Hg5 mi
11:00 AM55 °FSprinkles. Scattered clouds.31 mph72%29.50 "HgN/A
10:30 AM50 °FLots of rain. Mostly cloudy.37 mph100%29.50 "Hg1 mi
10:00 AM54 °FSprinkles. Mostly cloudy.37 mph82%29.47 "Hg6 mi
Weather by CustomWeather, © 2014

See weather overviewHow to use our weather pages